Theta_e
303 304 304 304 304 305 305 305 305 305 306 307 307 308 309 310 311 312 313 312 312 312 311 312 311 311 312 312 315 318 320 319 317 330 343 347 350 352 353 353 352 351 350 347 347 347 345 344 343 342 342 341 341 341 340 341 340 340 340 339 340 340 340 341 340 340 341 341 340 340 339 339 338 338 339 340 340 340 340 339 340 341 339 339 339 339
303 304 303 303 304 304 304 305 305 306 306 306 306 307 307 308 309 310 311 311 311 311 312 312 312 311 312 312 314 315 319 320 317 326 339 344 345 350 353 353 353 352 351 350 348 346 344 343 343 342 342 341 340 340 340 340 340 339 339 339 339 340 340 341 340 341 341 340 340 339 339 339 339 339 339 340 340 339 340 339 340 340 339 339 339 338
303 303 302 303 304 304 304 305 305 305 305 306 306 306 307 307 308 309 309 310 310 310 312 313 312 311 312 313 314 315 315 319 319 323 333 340 341 346 352 353 354 353 352 352 350 347 344 343 343 342 341 341 340 340 340 339 339 339 339 339 339 339 340 341 341 341 340 340 340 339 339 339 339 339 339 339 338 338 339 339 339 339 339 338 338 337
303 303 302 303 304 304 304 304 304 305 305 305 306 306 306 306 307 308 308 309 309 310 311 312 312 312 314 313 314 316 315 318 323 325 329 335 338 343 349 351 352 353 352 352 350 347 345 343 343 342 341 341 340 340 340 339 339 339 338 339 339 339 340 340 341 341 340 340 339 339 339 338 339 339 338 338 338 338 339 340 339 338 338 337 337 337
303 303 303 303 303 303 304 304 304 304 305 305 305 306 306 306 307 307 308 308 308 309 309 310 311 312 315 316 313 315 316 316 320 323 325 330 335 339 345 349 350 352 352 351 350 348 346 344 343 342 341 341 340 339 339 339 339 339 339 339 339 339 340 340 340 340 340 339 339 339 339 338 339 338 337 338 339 340 339 339 338 338 338 337 336 336
302 303 303 302 302 302 303 304 304 305 305 305 306 305 306 306 307 307 307 307 308 308 309 310 311 313 316 316 314 314 316 315 316 318 320 324 329 335 342 346 348 350 351 350 349 348 346 344 343 342 341 340 340 340 339 339 339 339 339 339 339 339 340 340 340 340 340 339 339 339 338 338 338 337 337 338 340 340 339 338 338 337 337 336 336 336
303 303 303 302 302 302 302 302 303 305 305 305 306 306 306 306 307 307 307 307 308 308 309 310 311 315 317 315 314 314 314 315 315 316 318 321 324 330 338 344 346 348 350 350 348 347 346 344 343 342 341 341 340 340 339 340 339 339 339 339 339 340 340 340 340 340 340 339 339 338 338 338 338 337 337 338 339 339 339 338 337 336 336 336 336 336
303 303 303 303 302 302 302 301 303 304 305 305 306 306 307 307 306 307 307 307 307 308 308 309 310 313 315 315 316 315 314 315 315 315 318 319 321 325 333 341 344 347 350 350 348 348 346 345 344 342 341 341 340 340 340 339 339 339 338 339 339 340 341 340 340 340 340 339 338 338 338 338 337 337 337 338 338 338 338 338 336 336 336 336 335 335
304 303 303 303 303 302 302 302 303 304 305 306 306 306 307 307 307 307 307 307 307 308 308 308 309 311 313 317 318 315 313 314 315 315 316 317 319 321 328 337 342 345 348 349 348 347 346 344 343 343 342 341 340 340 340 340 339 339 339 339 340 340 341 341 341 340 340 339 338 337 337 337 337 337 337 338 338 338 338 337 336 335 335 334 334 334
305 305 304 303 304 303 303 303 303 303 304 305 306 306 306 307 307 307 307 307 308 309 309 308 309 312 314 317 317 315 314 313 315 315 315 316 317 320 325 332 340 345 348 348 347 347 346 344 343 343 342 341 341 340 340 340 340 339 339 340 340 341 341 341 341 341 340 339 338 337 337 337 337 337 337 338 338 337 337 336 335 334 332 332 332 331
304 304 305 304 304 304 304 304 304 303 303 303 304 305 306 307 306 308 309 308 309 310 310 308 308 310 313 315 315 316 316 314 315 315 315 316 315 320 325 330 339 346 347 347 347 347 345 344 343 343 342 341 341 340 340 340 340 340 339 340 340 341 341 341 341 341 340 339 338 337 337 337 336 337 337 337 337 336 335 334 333 332 331 330 330 330
304 304 305 304 305 305 304 304 304 304 303 303 304 305 306 307 307 308 309 309 310 310 309 308 309 309 311 313 314 316 316 315 315 314 315 316 315 319 325 329 337 345 347 347 347 347 346 345 344 343 342 341 341 341 341 340 340 340 339 340 340 340 341 341 341 340 340 339 338 337 337 336 336 337 337 337 336 335 334 333 332 331 330 329 329 328
305 304 304 303 305 304 304 304 303 303 303 303 304 306 308 309 309 309 310 311 311 311 309 309 309 309 310 312 312 313 315 315 315 314 315 316 314 318 324 329 337 343 346 347 346 346 346 345 345 343 341 341 341 341 341 341 340 340 339 340 340 340 341 341 340 340 340 338 338 337 336 336 336 337 337 337 336 334 334 333 332 330 329 329 328 327
306 305 304 304 304 304 304 304 303 304 305 304 304 306 309 310 311 311 312 312 312 312 311 309 309 310 311 314 315 313 313 315 315 315 315 316 315 317 324 330 338 343 345 347 346 346 346 345 345 343 342 341 341 341 341 341 341 340 340 340 340 340 340 340 341 340 339 338 338 337 336 336 336 336 336 336 335 334 334 333 332 331 330 329 328 327
308 307 306 304 304 305 304 303 304 304 304 304 302 303 307 309 310 311 313 314 313 314 313 310 313 312 311 318 322 317 315 315 315 316 315 316 316 317 323 329 338 344 345 346 346 346 346 345 344 343 342 341 341 341 341 341 341 340 340 340 340 340 340 340 340 340 339 338 337 337 336 336 336 336 336 336 335 334 333 333 332 331 331 330 328 327
307 307 306 305 305 304 304 304 303 303 304 305 303 303 305 306 308 312 315 315 314 316 317 315 318 318 316 320 321 316 317 316 315 316 316 316 317 319 323 330 339 344 345 346 346 346 345 344 343 343 342 342 341 341 342 342 341 341 340 340 340 340 340 340 339 339 339 338 337 337 336 336 336 335 335 335 334 333 333 332 332 332 330 329 327 326
307 307 305 304 306 304 304 305 303 303 306 306 305 305 306 306 307 311 316 318 316 318 321 318 317 319 318 319 318 315 316 317 316 316 316 316 318 322 326 333 340 345 345 346 346 345 345 344 343 343 342 342 342 342 342 342 341 341 341 341 340 340 340 339 339 339 338 338 337 337 336 336 336 335 335 334 333 333 332 332 332 331 329 328 326 325
308 308 307 305 306 305 304 305 304 304 305 305 305 306 309 311 310 310 316 319 318 318 320 319 316 316 316 321 324 319 316 318 317 316 316 316 318 322 327 335 342 344 345 346 345 345 345 344 343 343 342 342 342 342 342 342 342 342 341 340 340 340 339 339 339 339 338 338 337 336 336 336 335 335 335 334 333 333 332 331 331 330 328 327 325 323
308 309 309 305 305 306 305 305 306 306 304 304 305 304 310 317 316 313 314 316 318 317 319 322 320 316 316 319 322 319 316 320 320 317 316 317 320 323 328 337 343 344 345 346 345 345 344 344 343 342 342 342 342 342 342 342 342 342 341 341 340 340 339 339 339 339 338 338 337 336 336 335 335 335 334 334 333 332 331 331 330 329 328 326 324 322
308 309 310 309 306 307 308 307 308 308 306 305 304 303 311 318 316 315 314 314 319 321 321 324 324 321 320 318 316 317 319 321 322 321 320 320 321 324 330 338 343 343 345 345 345 345 344 344 343 342 342 342 342 342 342 342 342 342 341 340 340 339 339 339 339 338 338 337 337 336 336 336 335 334 334 334 333 332 331 331 330 329 328 325 323 321
310 307 308 310 308 308 310 310 308 307 306 305 305 305 310 316 314 314 315 312 316 321 322 323 325 326 324 319 317 318 320 320 319 321 323 324 323 323 329 338 342 343 345 345 344 344 344 343 342 342 342 342 341 341 342 341 341 342 341 340 340 339 338 339 338 338 338 337 337 336 336 335 335 334 334 333 333 332 331 330 330 329 327 324 322 321
313 309 308 311 310 308 309 310 307 306 305 305 306 306 308 314 317 316 317 316 314 316 318 318 322 327 322 319 320 319 319 320 320 320 322 323 324 324 327 335 341 344 344 344 344 344 343 343 342 341 341 341 341 341 341 341 341 341 341 340 339 339 338 338 338 338 338 337 337 337 336 335 335 334 333 332 332 331 331 330 329 328 326 324 323 321
312 311 311 311 309 308 307 307 308 308 306 304 306 308 309 315 317 315 318 322 318 315 316 315 320 324 321 321 322 320 321 323 323 323 321 321 324 325 325 332 340 344 344 344 344 343 343 343 341 341 341 340 340 340 340 340 341 340 341 340 339 339 338 338 337 337 337 337 336 336 336 335 335 333 333 332 331 331 330 329 329 327 326 324 322 321
310 312 312 311 310 309 308 308 308 308 307 305 306 309 311 313 314 314 318 320 318 317 317 319 322 321 319 321 321 320 322 322 324 325 322 321 324 325 325 331 340 344 344 344 344 343 343 342 341 341 340 340 340 339 339 340 340 340 340 340 339 339 338 338 337 337 337 336 336 336 336 335 334 333 332 332 331 330 329 329 328 327 325 324 322 321
312 313 312 312 313 314 313 312 310 309 307 307 308 310 311 312 312 314 316 317 317 317 315 318 321 319 317 320 320 320 321 321 323 325 323 323 325 326 327 334 343 345 344 344 344 343 343 342 342 341 340 340 340 339 339 339 340 340 340 339 339 338 338 338 337 337 336 336 336 336 335 335 334 333 332 331 331 330 329 329 328 326 324 323 322 320
314 314 312 313 315 316 316 316 316 314 308 306 308 310 310 311 312 315 318 318 318 318 316 318 320 317 316 320 320 320 320 321 323 324 324 324 325 326 330 338 344 345 344 345 344 343 343 342 342 341 340 339 339 339 339 338 339 339 339 339 339 338 338 338 337 337 337 336 336 335 335 334 334 333 332 331 330 329 329 329 328 326 323 322 321 320
314 315 313 313 314 315 315 314 315 315 311 308 309 311 311 312 312 315 320 321 321 320 318 318 320 321 319 319 321 321 320 322 324 324 324 325 326 331 337 341 344 344 344 345 343 343 343 342 342 341 340 339 339 339 339 338 339 339 339 339 339 338 338 338 338 337 337 337 336 335 335 334 334 333 332 331 330 329 329 328 327 325 323 322 321 320
315 314 314 314 314 314 313 313 313 314 315 312 311 313 314 314 315 316 318 322 323 320 317 318 323 324 320 319 322 322 321 324 324 323 324 324 327 335 342 344 345 344 344 344 343 343 343 342 342 341 340 339 338 338 338 338 338 338 339 339 339 338 338 338 338 338 337 337 336 335 335 334 334 333 332 331 329 328 328 327 326 325 323 322 321 320
317 316 316 316 315 314 315 316 316 316 318 316 313 315 315 315 316 316 316 319 320 318 317 318 322 323 321 320 321 321 324 326 324 323 324 325 329 338 345 345 345 345 344 344 343 343 343 342 341 341 340 339 338 338 338 338 338 338 338 339 339 339 338 338 338 337 337 336 336 335 335 334 333 332 331 330 328 327 327 326 325 324 323 322 321 319
315 316 318 317 316 316 317 319 320 318 319 319 317 314 312 313 315 315 315 316 316 317 318 319 324 325 323 322 323 325 326 325 323 323 324 325 330 339 346 346 345 345 344 344 343 342 342 342 341 340 340 338 338 338 338 338 338 338 338 338 339 339 338 338 338 337 337 336 335 335 334 333 332 331 330 329 328 326 325 324 323 322 322 322 321 319
313 317 319 318 317 318 319 321 322 319 319 322 323 318 311 312 315 314 315 316 316 318 319 321 325 325 321 325 331 330 327 323 322 322 324 326 330 337 345 345 345 345 343 343 343 342 341 341 341 340 340 339 338 338 338 338 338 338 338 338 339 339 339 338 338 337 337 336 335 335 333 332 331 331 329 328 327 325 324 323 322 322 322 322 320 318
315 318 320 319 319 319 319 319 319 319 320 321 326 327 318 314 315 315 316 317 316 317 319 322 323 319 319 328 334 331 324 322 322 323 326 329 330 334 343 345 343 344 344 343 342 342 341 341 341 340 340 339 338 338 338 338 338 338 337 338 338 338 338 338 337 337 336 336 335 334 333 332 330 330 329 327 326 325 324 323 322 323 323 321 319 318
320 321 321 321 321 321 320 319 319 320 322 323 328 331 324 318 318 317 318 318 317 318 321 323 321 321 328 334 333 330 326 322 324 327 330 333 333 334 340 345 344 342 343 343 342 341 341 341 340 340 339 338 338 338 338 338 338 338 337 337 338 338 338 338 337 337 336 335 334 333 332 331 330 329 328 326 325 324 323 323 323 324 323 321 319 317
321 320 320 320 321 322 322 322 321 321 324 329 330 325 321 321 321 319 319 319 319 319 321 321 321 328 338 339 333 333 330 324 324 328 328 330 334 336 338 343 347 344 342 342 341 341 341 340 340 339 338 338 338 338 338 338 337 338 337 337 338 337 337 337 336 336 336 334 334 332 331 331 330 328 327 326 325 324 323 323 324 324 322 320 318 316
322 321 321 319 320 323 323 322 323 322 323 327 325 319 320 322 321 320 322 321 318 318 320 321 324 329 334 336 337 336 331 325 324 329 331 330 331 335 336 339 345 347 344 342 341 341 341 340 340 339 338 338 338 338 337 338 338 338 337 337 337 337 337 337 336 336 335 334 333 332 331 330 329 328 326 325 324 323 322 323 324 323 320 318 317 315
321 321 322 321 320 323 323 322 323 322 321 323 322 321 324 326 325 328 333 331 324 322 323 322 322 323 324 332 340 335 326 323 324 328 335 334 331 333 333 333 339 345 344 343 343 341 340 339 339 338 338 338 338 337 337 337 337 337 337 337 337 337 336 336 336 335 334 333 332 331 330 329 328 327 326 324 323 322 321 322 322 321 318 317 316 315
319 319 321 321 320 321 323 323 323 322 321 322 322 323 325 326 325 327 333 334 328 326 328 326 323 324 323 327 336 333 325 326 326 325 328 331 330 332 332 331 336 343 343 340 340 340 339 338 337 338 338 338 337 337 337 337 338 337 337 337 336 336 336 335 335 334 334 333 331 330 330 329 328 327 325 324 323 322 321 321 320 319 318 316 315 314
319 320 321 320 319 321 324 324 323 324 325 323 321 322 323 324 323 323 328 332 328 326 328 329 329 331 329 326 328 326 323 324 326 323 321 324 327 329 332 331 333 340 343 339 338 338 337 338 337 337 338 337 337 338 337 337 338 337 336 337 336 336 335 335 334 334 333 332 331 330 329 328 327 326 325 324 323 321 321 320 319 319 317 316 315 314
318 320 323 323 321 321 323 323 323 325 326 324 321 321 322 324 323 321 324 328 327 326 327 329 331 334 334 331 328 323 320 321 323 320 318 325 331 329 331 332 332 336 338 336 336 337 337 338 337 336 337 337 337 337 337 337 337 337 336 336 336 335 335 334 334 333 332 332 331 330 329 328 327 327 325 324 323 322 321 320 319 318 317 316 315 315
318 320 323 325 323 321 321 322 323 324 324 323 321 321 322 324 321 319 323 326 326 326 327 328 330 331 333 332 329 324 323 322 319 315 319 335 342 333 329 331 332 334 336 334 334 337 337 338 337 336 336 337 337 337 337 337 337 336 336 336 336 335 335 334 334 333 332 332 331 330 329 328 327 326 325 324 324 322 321 320 318 317 317 316 315 315
318 319 321 321 322 321 321 321 323 323 322 322 322 321 322 323 321 321 326 327 324 325 326 327 328 330 331 330 327 325 323 320 317 317 324 337 344 339 336 334 330 330 334 333 333 336 337 337 337 336 337 337 337 337 337 337 336 336 335 336 335 335 335 334 333 332 331 331 330 329 328 327 326 325 324 324 323 321 320 319 318 317 316 316 315 315
318 319 320 320 320 320 320 320 322 323 321 320 321 321 322 324 324 324 325 323 322 324 326 325 326 328 329 330 328 326 324 323 326 330 331 335 339 340 341 340 334 331 332 333 333 335 336 337 337 337 337 336 336 337 337 337 336 335 335 335 335 335 334 333 333 332 331 330 329 328 327 326 325 324 323 323 322 321 320 319 318 317 317 316 315 315
319 319 320 320 320 319 320 321 323 324 322 320 321 322 323 324 324 323 323 323 323 324 323 324 326 328 328 329 329 328 326 326 330 335 335 335 336 335 335 337 337 335 333 333 334 334 336 337 337 336 337 336 336 337 337 336 335 334 334 334 334 334 334 333 332 331 330 329 328 327 325 325 325 324 323 322 321 321 319 318 318 317 316 315 315 313
320 320 320 319 319 320 322 323 324 325 323 321 321 323 323 323 323 323 324 324 324 323 323 325 326 326 327 328 328 328 328 327 328 334 338 338 337 338 337 336 337 336 333 333 334 334 335 337 337 336 336 336 336 336 336 336 334 333 334 334 334 334 333 332 331 330 329 328 327 325 324 324 324 323 322 321 321 320 319 318 317 317 315 314 314 313
321 321 321 320 319 320 322 322 323 323 322 321 321 323 323 322 322 322 323 323 323 323 324 325 326 324 324 326 327 328 328 328 328 332 339 341 339 339 339 338 336 333 330 330 332 334 336 336 336 336 336 335 336 336 336 335 334 332 333 333 333 333 331 330 330 329 327 326 326 325 323 322 322 322 321 321 321 320 319 318 316 315 314 314 313 312
321 321 320 321 321 322 322 322 322 321 321 322 322 323 323 322 322 322 322 323 324 323 323 324 325 324 323 324 327 328 328 327 328 330 335 341 342 340 340 339 336 332 330 329 329 331 335 336 335 335 335 335 335 335 335 335 333 333 333 332 332 332 331 329 328 327 325 325 324 323 322 321 321 321 321 320 320 320 319 317 316 315 313 313 312 312
318 320 321 322 323 322 321 323 323 322 322 322 322 323 323 322 322 322 322 323 324 324 324 324 324 324 323 324 326 328 327 327 329 330 332 334 335 335 335 335 333 331 331 330 327 328 332 334 334 334 334 334 334 334 333 333 332 332 332 332 331 331 330 328 327 325 324 324 323 322 321 321 321 320 320 319 319 318 318 317 316 314 313 312 311 311
313 318 321 323 323 322 320 320 321 322 322 323 323 324 324 323 322 322 322 323 324 324 325 324 324 324 325 324 326 327 326 326 329 330 330 329 328 329 329 329 329 329 328 327 327 327 328 329 331 331 331 330 331 330 329 329 329 330 331 331 330 330 329 327 326 325 324 324 323 322 322 321 321 320 319 319 318 318 317 316 315 314 314 313 313 312
311 316 321 322 322 321 320 320 321 323 324 324 324 324 324 324 323 322 322 322 323 323 324 324 323 325 326 326 326 326 326 327 328 329 329 328 327 327 327 328 329 328 326 326 327 327 327 326 327 327 327 327 328 327 327 328 329 330 331 330 329 329 327 325 325 324 323 323 322 321 321 320 320 319 318 317 317 317 317 316 316 315 315 314 315 314
312 315 319 320 319 319 319 319 320 323 324 323 322 323 324 324 323 322 323 323 324 323 323 323 325 327 327 325 325 325 326 326 326 326 327 327 327 327 327 328 329 328 326 325 327 327 326 325 325 326 327 328 328 328 328 328 328 330 330 329 329 328 326 324 323 322 321 321 321 320 320 319 318 318 317 316 316 315 315 315 315 314 314 314 314 313
310 311 314 316 317 318 317 317 318 321 323 323 322 323 324 324 323 322 323 323 324 323 323 323 325 327 326 325 325 325 325 326 325 325 326 326 326 326 325 326 329 330 328 326 325 325 325 326 326 327 328 328 327 327 328 328 327 328 329 329 328 328 326 323 322 320 319 319 319 318 319 318 317 316 316 315 315 314 313 312 312 312 313 313 313 312
Wind_Speed
3 4 5 7 6 6 7 7 8 10 12 12 10 10 10 9 8 9 10 10 10 10 11 12 17 21 18 17 16 10 11 19 16 11 13 15 14 14 14 14 14 15 15 15 21 28 32 37 39 38 38 38 37 38 39 38 37 37 36 35 34 33 34 35 34 35 36 34 33 32 31 31 30 29 27 26 25 23 20 19 19 18 18 20 19 17
2 5 8 8 7 9 9 9 9 10 12 12 11 10 11 10 9 10 12 12 9 8 9 11 15 22 19 14 15 13 10 14 16 13 15 17 16 14 16 16 15 13 12 12 14 18 24 30 34 36 36 37 37 38 40 39 38 37 37 36 35 34 34 34 34 35 36 35 35 33 32 32 31 30 29 28 25 23 21 20 19 18 19 20 20 18
4 7 9 8 8 10 10 10 10 12 13 10 8 8 9 8 8 10 13 15 12 6 7 10 12 15 17 15 14 16 14 11 13 12 16 19 17 15 16 17 16 14 12 12 13 16 21 27 32 33 34 37 39 39 40 40 39 38 36 36 35 35 35 34 35 35 35 35 34 32 31 31 31 30 29 27 24 22 21 20 19 19 19 20 20 21
5 7 8 8 8 10 11 11 11 11 10 9 7 7 8 8 8 8 10 14 13 8 8 11 11 9 10 12 13 14 15 13 11 10 14 19 19 18 18 17 17 17 14 15 15 16 20 25 28 30 33 34 35 36 38 39 40 38 37 37 37 36 36 35 35 35 34 33 32 30 30 30 29 27 26 25 23 22 21 20 20 19 19 20 21 22
10 9 7 8 9 9 11 11 11 9 7 9 10 8 8 9 10 9 10 13 12 11 10 9 10 8 5 8 11 12 14 15 14 11 11 15 18 19 19 19 20 20 18 18 18 17 18 21 25 31 33 34 35 37 39 40 41 39 38 38 38 38 37 35 35 35 34 32 30 29 28 27 25 24 24 24 23 23 22 21 21 20 20 22 23 23
10 9 7 10 9 9 10 10 10 9 7 8 10 11 12 12 12 11 13 13 9 9 10 6 5 7 5 8 10 10 13 17 17 14 11 13 16 17 16 17 19 19 20 20 21 20 18 20 25 30 32 34 35 36 39 41 41 40 39 39 39 38 37 36 36 35 35 33 32 32 30 27 25 23 25 27 26 25 23 22 21 21 22 24 24 23
6 6 8 11 12 11 10 10 11 10 7 7 8 10 14 14 13 13 14 12 6 7 10 7 5 5 4 7 10 11 14 18 18 16 12 12 14 16 15 15 17 17 17 19 20 21 20 20 22 24 31 35 34 34 37 40 39 39 40 39 39 38 37 37 37 36 36 35 34 33 32 29 27 25 25 27 28 26 24 23 21 22 24 24 24 22
3 6 8 9 9 9 7 8 10 11 8 7 9 11 13 14 14 14 14 12 7 7 12 9 5 5 5 5 9 13 16 19 20 17 13 11 13 17 18 18 19 18 17 17 18 19 20 20 22 26 33 36 34 34 38 39 39 39 40 40 39 38 38 37 37 37 37 36 35 34 32 29 28 28 27 27 27 25 24 23 23 24 24 23 23 22
1 3 5 4 5 5 5 7 8 8 8 9 12 13 12 12 13 12 11 11 9 7 10 10 5 4 5 6 7 11 16 18 19 19 16 13 13 16 19 19 19 18 19 19 19 20 19 21 26 33 36 35 34 37 40 40 40 39 40 40 38 37 37 37 37 38 38 37 35 33 31 29 28 28 28 27 27 26 26 25 24 24 24 23 22 21
2 4 6 6 6 6 6 7 7 5 6 9 12 13 13 12 10 9 7 8 9 7 9 13 7 4 5 5 6 6 11 14 15 16 17 16 14 13 15 19 18 16 17 19 21 21 21 25 32 36 35 33 35 38 40 39 38 38 38 38 37 37 37 37 38 38 37 36 35 34 32 30 29 27 27 27 28 28 27 26 26 25 24 23 23 22
5 7 8 7 6 6 7 8 9 8 8 9 9 10 12 11 8 7 5 5 7 5 10 17 11 5 5 6 5 5 8 12 13 13 15 17 15 11 12 16 17 16 15 16 18 19 21 28 33 33 30 31 33 35 37 37 36 37 37 37 37 37 36 37 38 38 37 35 35 35 33 33 31 29 29 29 29 29 29 29 28 26 25 23 22 21
7 8 7 7 7 7 7 8 8 7 8 7 6 4 6 7 5 5 4 4 6 5 9 16 12 9 7 6 6 6 8 12 14 15 15 17 17 13 12 14 15 16 16 16 16 16 17 20 22 23 24 28 30 32 34 36 36 37 37 37 36 35 36 37 38 38 36 35 35 34 34 34 34 33 32 32 32 32 31 31 29 27 25 23 21 20
6 7 8 8 9 8 6 6 6 5 5 5 5 3 2 3 3 4 4 4 5 5 8 12 10 8 7 7 12 14 13 12 13 16 17 18 17 13 13 14 13 15 17 17 16 15 15 15 14 17 22 26 28 32 34 35 36 36 36 37 36 35 36 37 37 37 36 35 35 34 34 34 34 34 34 34 34 33 33 33 31 28 26 24 22 20
4 6 9 9 7 6 7 5 3 2 3 3 2 1 2 1 1 3 4 3 4 5 8 12 9 6 5 7 14 18 17 13 13 15 17 19 18 15 14 14 13 15 17 17 17 16 16 16 15 18 23 26 28 32 34 35 36 35 35 36 36 35 36 37 37 36 36 36 35 34 34 34 34 35 35 34 34 34 33 33 32 30 27 25 23 21
3 5 6 7 3 4 7 6 6 4 3 5 3 2 2 2 2 3 3 2 3 5 7 8 7 6 6 6 9 13 13 11 11 13 15 17 17 16 14 14 14 17 18 17 18 18 18 18 18 20 25 28 29 32 34 34 35 35 34 36 37 36 36 37 37 36 36 36 35 34 34 34 35 35 35 34 34 34 34 33 32 29 27 26 23 21
4 6 6 8 7 6 7 6 5 4 4 5 3 3 3 3 4 4 2 3 2 4 6 4 4 4 5 6 9 10 9 7 9 12 14 15 14 14 14 15 15 16 17 17 17 18 19 19 19 22 26 28 30 32 33 34 35 35 35 37 38 38 37 37 37 36 36 35 34 34 34 34 34 34 34 33 33 34 34 33 31 29 27 25 23 20
3 5 5 6 8 8 7 5 3 3 4 3 1 3 3 4 5 3 3 1 1 3 5 4 4 3 2 6 10 11 10 9 10 12 15 16 15 15 15 14 14 15 16 17 17 18 19 17 18 23 27 28 30 32 34 36 37 38 37 37 37 36 35 36 36 36 36 35 34 33 33 34 34 34 34 34 33 33 32 32 31 29 27 24 22 21
3 4 6 5 9 9 5 5 5 5 5 1 2 3 3 5 3 3 1 1 2 3 5 4 5 4 4 6 7 7 10 11 10 11 17 18 17 17 17 15 16 18 18 19 18 18 19 18 18 22 27 30 33 36 37 38 38 38 38 38 38 37 37 37 37 37 35 34 34 33 34 34 35 35 34 34 33 33 32 31 29 28 26 24 23 22
3 3 7 6 7 7 5 4 4 4 4 4 4 2 2 1 2 1 2 1 1 3 4 4 5 5 6 6 5 5 8 8 9 12 15 15 16 17 17 15 17 18 17 17 17 17 17 18 18 22 27 30 32 35 36 37 37 36 36 37 37 37 37 37 36 35 34 33 33 33 33 34 34 34 34 33 33 32 32 31 29 28 27 25 24 24
4 1 5 4 2 3 5 1 2 5 3 2 2 1 1 2 2 2 2 2 2 2 3 4 4 2 5 6 7 8 7 7 9 10 10 11 14 16 15 15 17 17 15 16 16 17 18 18 20 26 29 30 32 33 33 34 34 34 34 34 34 34 34 35 35 35 33 32 32 32 33 34 34 34 33 33 33 32 31 30 29 29 28 27 26 26
2 2 4 4 3 4 3 3 4 5 4 1 1 2 2 1 1 1 2 1 2 2 2 3 4 4 5 4 4 7 6 6 7 8 8 9 13 15 15 16 18 17 16 17 17 17 19 18 20 25 28 29 31 32 33 34 34 33 32 32 33 33 34 35 36 35 34 33 32 32 32 34 34 34 33 33 33 32 31 30 30 30 30 29 28 28
1 2 3 4 4 2 5 6 5 5 5 4 4 4 5 3 1 0 2 3 2 2 2 4 5 6 5 1 1 3 6 7 8 9 9 10 13 16 16 17 19 18 17 18 19 19 18 17 17 21 25 26 28 30 32 33 32 31 31 32 33 33 34 36 35 35 35 33 32 31 32 33 34 33 33 33 32 32 31 31 32 32 32 31 30 29
2 0 3 5 5 7 11 11 9 9 9 6 5 5 5 4 3 3 3 3 2 3 4 4 6 7 3 3 4 6 9 9 9 9 10 12 13 15 18 18 19 19 20 21 21 18 17 16 17 20 23 25 27 29 30 31 31 31 31 32 33 33 34 35 35 34 34 33 32 31 32 33 33 33 32 33 33 32 32 32 33 33 33 32 31 30
2 1 3 4 5 8 12 11 10 10 9 6 5 4 5 5 5 5 4 1 1 4 4 4 6 7 2 6 9 11 14 14 13 12 11 11 13 14 17 18 17 18 20 21 18 15 14 14 15 17 18 22 25 27 29 30 30 30 30 31 32 33 34 34 34 33 33 33 32 31 32 33 33 33 33 33 33 33 33 33 33 33 33 32 31 30
2 2 2 3 3 3 4 4 4 6 5 4 4 5 6 7 6 3 2 2 0 5 6 4 6 7 5 9 12 13 15 16 15 16 15 9 11 14 14 15 16 17 18 19 17 15 15 15 15 15 15 20 24 26 28 29 29 30 30 31 32 32 33 34 33 33 33 32 32 32 32 33 33 33 34 34 33 33 33 33 33 33 33 32 31 30
2 2 2 2 1 1 1 1 2 4 3 3 5 7 8 8 7 4 2 2 2 4 6 5 6 10 10 11 12 14 14 16 17 17 17 14 10 13 13 14 17 18 18 20 18 16 17 16 16 16 16 20 25 26 28 29 30 30 31 31 32 32 33 34 33 33 33 33 33 33 33 34 34 34 34 34 33 33 34 34 34 34 34 33 32 30
1 3 4 5 4 3 4 6 5 4 3 4 7 7 8 8 8 5 3 3 4 4 6 6 6 11 14 11 11 13 13 13 15 16 16 17 13 9 11 14 16 17 18 19 17 17 17 17 17 19 18 20 25 28 29 30 31 31 30 31 32 32 33 33 33 33 33 34 34 33 34 35 34 34 34 33 33 34 35 35 36 36 35 33 32 31
1 2 5 6 7 7 8 9 9 6 4 5 6 6 6 7 7 6 4 4 4 3 7 8 6 9 13 11 10 12 11 11 13 14 15 16 14 9 7 14 16 16 17 17 16 18 19 18 18 18 17 19 24 27 29 30 31 32 32 32 32 32 33 33 33 34 34 34 34 33 34 35 34 34 34 33 33 34 35 36 36 36 35 33 32 31
1 2 4 4 5 8 8 7 7 6 5 5 5 7 8 8 8 6 5 6 6 5 9 10 7 9 11 9 10 12 10 9 11 12 14 14 12 8 6 13 17 17 17 18 18 19 19 19 19 18 17 18 22 25 26 27 29 30 30 31 32 33 34 34 34 34 34 34 34 33 33 33 33 34 34 34 34 35 36 36 36 36 34 33 31 30
1 2 3 2 4 5 5 5 6 6 4 3 4 7 9 9 9 9 9 10 10 10 11 11 9 10 10 7 9 11 8 8 10 10 12 14 11 7 9 12 16 17 18 18 19 18 19 20 19 19 18 18 21 24 25 26 28 29 29 30 31 32 33 34 34 34 34 34 33 33 33 32 33 34 34 35 35 35 36 36 35 35 33 31 30 29
2 2 3 2 3 3 3 3 5 7 8 7 5 4 7 10 10 9 9 8 8 10 11 9 8 9 7 4 6 9 8 9 11 12 14 13 10 6 11 14 15 17 18 19 18 18 18 18 18 19 18 18 22 26 27 27 29 30 30 31 31 32 33 34 34 34 34 33 33 33 33 33 33 34 35 35 35 36 36 35 35 34 32 30 30 30
3 2 2 2 3 3 4 5 5 6 7 7 5 3 5 9 8 7 7 8 9 10 9 6 5 7 7 4 5 7 10 12 12 13 13 10 10 6 10 16 17 18 18 17 17 17 17 18 18 19 19 20 24 28 29 29 29 29 30 32 32 32 33 34 34 33 33 33 33 33 34 34 34 34 34 34 35 35 34 34 35 33 30 30 31 30
4 2 1 1 2 5 4 6 7 3 1 2 4 4 6 7 7 6 7 8 10 8 4 4 5 5 5 4 5 7 11 12 11 10 10 9 9 9 5 10 14 18 19 19 19 18 18 18 18 19 20 22 27 30 32 32 32 31 32 33 33 33 34 33 33 33 33 33 34 34 34 35 35 34 34 34 34 34 34 34 33 31 30 31 31 30
3 3 1 1 1 4 7 8 6 3 2 3 4 3 5 7 8 8 8 9 8 6 5 6 6 4 4 4 4 5 8 11 11 10 10 9 6 8 9 4 3 7 12 17 18 19 19 17 16 19 22 26 30 32 33 34 33 32 33 33 32 33 34 32 31 32 32 33 34 35 35 36 36 35 34 33 34 34 34 34 32 30 30 31 31 31
3 3 1 0 1 3 4 6 5 2 3 6 4 4 5 4 4 5 6 7 6 6 8 8 7 7 6 4 3 5 8 11 12 11 12 11 5 4 8 6 3 3 3 9 13 15 16 16 14 15 19 25 28 29 29 31 31 31 31 32 32 32 33 32 31 31 32 32 34 35 36 36 36 35 34 33 33 33 33 33 32 31 31 32 32 33
5 3 1 0 2 2 3 4 2 4 7 8 6 5 7 6 5 6 4 4 3 5 6 7 8 10 9 6 2 7 11 11 10 9 10 13 9 5 7 7 3 2 3 8 11 13 13 15 17 19 23 26 27 28 29 30 31 31 31 31 32 32 32 32 31 30 31 32 34 35 36 36 35 34 33 33 32 32 33 32 32 32 32 32 32 33
5 2 1 1 2 1 2 2 2 4 7 7 3 3 3 4 4 4 3 4 3 6 6 5 2 4 4 7 8 11 11 5 6 9 11 15 15 9 9 11 11 10 7 7 11 15 18 21 23 24 27 29 29 30 30 31 32 31 30 30 30 31 32 32 31 30 32 33 35 36 37 37 36 34 33 33 32 31 31 31 31 32 33 32 32 32
2 3 2 1 1 1 1 3 3 3 3 3 1 2 1 6 7 3 3 5 4 6 7 6 4 5 4 1 6 9 6 1 5 10 11 14 17 12 10 12 13 12 11 9 11 13 17 22 24 25 28 30 31 32 33 33 34 32 29 29 30 30 30 30 30 31 32 34 36 37 37 37 37 36 35 33 33 32 31 31 32 33 34 34 33 33
7 1 2 2 2 1 1 2 2 1 3 6 3 2 2 9 8 1 3 4 4 8 9 6 5 5 3 3 5 4 2 4 7 9 10 11 13 12 12 13 12 12 14 16 18 18 20 23 26 27 28 28 29 32 35 35 35 32 28 28 29 29 29 29 31 33 34 35 37 38 37 37 38 39 37 35 35 35 34 33 33 34 34 34 33 33
9 5 4 4 2 0 1 1 2 3 4 4 6 7 8 10 5 1 3 4 5 10 10 7 8 8 4 4 5 2 4 7 9 8 9 7 5 9 13 15 15 14 14 15 20 23 25 27 27 25 26 29 31 34 37 37 34 31 29 29 28 27 28 30 32 33 34 35 36 37 38 40 40 40 40 40 39 37 35 33 33 33 33 33 32 33
4 4 3 3 2 2 2 2 2 4 3 2 7 12 12 8 2 2 4 5 7 11 10 7 8 9 6 4 4 3 5 9 9 8 9 7 2 6 11 13 15 15 15 18 24 26 25 26 29 29 30 33 35 36 37 36 33 29 29 29 28 27 28 31 32 33 34 34 35 35 37 40 40 39 39 39 38 35 33 33 33 33 33 32 32 32
3 3 3 2 2 2 2 3 3 3 2 4 10 12 8 3 1 2 5 7 9 11 11 9 8 8 6 4 4 4 7 10 8 5 6 5 4 1 3 7 11 14 16 19 24 26 24 23 27 30 32 34 36 38 39 37 32 29 29 27 27 28 29 31 33 35 35 35 35 35 37 39 38 36 35 34 34 33 32 31 32 33 34 33 33 33
1 2 4 2 2 2 2 2 3 2 3 8 12 8 3 2 1 5 7 9 10 11 10 9 8 6 6 6 6 6 9 10 7 6 7 7 6 6 5 3 1 5 10 14 17 22 23 22 23 26 29 32 36 37 38 36 31 28 28 27 27 30 31 32 34 36 36 36 36 35 36 37 37 35 34 33 33 33 31 30 31 32 33 33 32 30
2 0 2 2 1 2 2 2 2 4 6 8 8 4 3 3 3 4 6 8 9 8 7 7 8 7 5 6 7 8 9 9 6 5 6 6 6 6 6 7 8 7 4 8 17 24 25 21 21 25 27 31 34 35 36 36 31 27 26 26 28 31 32 33 35 35 34 35 35 34 35 35 35 34 33 33 33 33 31 31 31 31 31 31 31 29
2 2 1 2 2 1 4 6 7 7 8 8 6 6 7 7 5 4 5 7 6 6 6 6 8 10 8 6 6 5 5 8 7 4 4 4 3 5 6 6 7 9 11 9 7 18 25 22 21 24 25 28 32 34 34 35 33 28 25 26 31 34 34 34 34 33 32 32 33 33 33 32 33 32 31 32 33 33 32 31 30 29 29 29 29 28
4 1 3 1 3 4 6 8 8 8 10 9 7 7 7 8 6 5 5 6 6 6 7 6 8 9 8 7 5 3 3 6 7 5 3 2 2 4 6 6 7 9 12 13 13 8 15 23 23 22 23 25 30 32 33 35 35 32 28 29 33 35 35 34 32 30 30 30 30 29 28 28 29 28 29 30 31 32 32 32 30 29 28 27 27 26
5 0 2 2 3 3 5 7 6 7 9 10 8 6 6 7 8 6 5 5 6 7 8 9 9 9 8 7 4 2 4 7 5 3 4 4 5 5 6 7 8 8 10 12 14 16 5 9 15 18 20 23 26 28 27 28 30 31 32 34 34 35 35 35 32 29 28 28 27 25 26 27 27 26 27 27 28 28 28 29 30 29 28 27 26 25
5 2 2 3 3 2 7 11 10 7 8 8 6 5 6 7 8 9 7 5 6 8 8 8 10 9 8 8 6 4 5 6 3 1 3 4 5 6 6 7 7 8 10 14 15 13 11 7 3 8 11 12 17 22 23 23 26 30 34 36 36 36 36 34 33 31 29 28 28 27 27 28 27 26 26 26 26 26 26 27 28 29 30 30 30 29
6 6 3 3 4 4 7 9 8 6 6 5 2 4 8 8 8 10 10 7 7 9 9 9 10 8 7 8 8 6 6 4 2 3 5 5 4 6 7 7 8 8 10 13 15 13 9 9 9 10 9 9 15 21 23 24 27 31 35 36 35 36 34 32 31 30 28 27 27 26 26 27 26 27 27 26 26 26 27 28 30 31 31 32 33 33
6 6 3 3 5 6 7 8 7 5 6 7 4 4 8 10 9 10 10 10 9 10 10 11 11 10 9 8 7 8 7 5 1 3 5 5 4 5 6 7 8 8 10 14 17 17 13 10 9 8 4 4 12 17 18 20 24 30 34 35 35 35 33 31 29 28 27 26 26 25 26 26 25 26 26 26 26 25 24 25 27 28 29 30 31 31
4 6 6 6 8 9 10 12 8 3 5 10 7 3 5 7 9 10 10 9 10 10 10 11 12 11 9 7 7 7 6 4 1 3 5 6 5 5 6 7 6 6 10 15 16 16 15 14 12 9 7 9 15 17 16 16 20 26 30 32 34 35 34 32 29 26 25 26 26 27 28 27 26 26 26 26 26 26 23 21 20 21 24 26 27 28
Wind_Direction
196 210 233 228 228 228 231 231 234 242 245 255 266 269 268 267 267 266 269 263 242 239 240 231 240 247 239 229 229 231 230 227 213 170 173 185 180 182 186 187 186 188 196 193 186 180 173 171 172 174 174 173 174 175 176 176 178 179 180 181 183 186 187 187 186 183 181 179 181 184 183 183 185 189 189 189 191 192 194 200 202 203 202 201 199 201
235 228 236 228 226 227 230 231 238 249 249 250 254 262 268 264 268 271 273 279 267 249 247 232 236 245 242 232 226 223 219 227 220 184 172 184 184 184 184 185 188 189 192 183 177 180 174 168 168 171 172 172 173 175 176 176 177 180 181 182 183 186 188 188 186 183 181 181 183 182 181 182 184 186 187 187 188 191 193 198 202 202 200 199 196 194
254 248 247 234 230 230 229 228 231 244 249 250 249 252 260 263 274 275 271 277 278 269 261 248 242 246 244 234 224 222 217 222 227 194 174 184 187 188 186 183 185 185 183 177 173 176 176 171 167 169 173 176 176 175 175 175 176 179 181 182 184 188 189 189 187 183 182 184 186 185 183 184 184 186 190 190 190 191 194 196 199 200 197 195 192 188
237 249 245 228 228 233 235 232 230 242 248 248 249 247 253 255 260 271 271 272 272 269 270 269 262 252 247 240 224 220 220 222 226 196 176 187 190 189 189 184 182 181 179 177 176 177 177 173 169 170 176 178 175 173 174 175 175 178 179 181 185 188 190 189 187 185 185 184 186 189 189 188 187 187 189 189 190 192 193 192 193 195 193 191 188 187
236 241 239 234 228 224 233 235 229 236 246 244 243 243 252 252 245 254 270 276 281 278 272 281 279 258 221 231 228 215 217 224 227 206 176 187 196 194 189 187 184 179 177 177 178 180 178 174 173 174 177 176 176 176 176 175 176 177 179 182 185 188 190 190 188 187 186 184 183 185 185 184 183 182 182 182 184 187 188 188 188 190 189 186 185 185
248 239 239 250 243 231 235 239 229 227 242 247 241 238 245 252 249 249 260 269 279 281 268 250 267 270 219 215 225 214 212 220 228 220 191 183 195 199 194 190 189 183 179 177 176 179 178 176 175 176 176 178 180 180 176 175 177 178 179 182 185 187 189 190 189 188 187 186 185 182 179 177 174 173 178 180 180 181 184 186 186 185 184 183 183 184
244 221 225 243 246 242 238 244 239 227 236 250 240 235 238 243 247 245 250 258 254 266 270 238 221 276 259 224 221 213 213 217 225 227 208 186 186 194 196 193 192 187 182 178 176 177 177 175 174 174 180 183 182 178 174 174 177 179 180 182 184 186 187 189 190 189 189 188 188 186 184 181 177 174 179 183 184 183 184 185 183 180 179 180 182 184
211 216 225 236 244 244 235 245 240 224 231 251 244 239 239 238 239 240 242 250 250 258 272 261 238 271 277 253 229 210 210 215 220 224 216 197 184 187 193 194 192 187 181 178 178 178 177 175 174 177 184 186 180 173 172 175 178 179 181 182 184 185 186 188 189 190 191 191 190 188 187 185 183 182 181 182 185 185 184 182 179 178 178 180 183 185
341 260 255 261 267 260 238 246 242 224 228 242 242 240 243 243 239 239 238 245 246 242 264 263 241 258 265 269 257 216 205 211 215 219 217 207 193 187 191 193 192 187 180 176 177 179 180 177 179 182 184 183 176 172 173 176 178 180 181 182 183 184 186 187 188 190 192 194 191 189 187 186 186 186 182 180 182 183 182 179 177 178 180 181 185 187
314 293 295 287 274 266 255 263 271 264 251 253 252 245 246 249 246 246 241 247 249 228 249 255 227 228 264 264 275 241 209 207 208 215 218 212 202 188 188 191 188 185 182 179 178 178 180 180 183 185 182 177 174 174 175 175 177 179 180 182 183 185 186 186 188 189 191 192 191 190 188 186 185 183 177 176 178 179 179 177 175 177 178 179 182 185
301 304 302 282 263 257 258 269 276 274 270 275 273 253 247 249 246 254 243 236 256 229 237 250 231 207 262 261 251 250 228 215 207 212 218 217 207 184 184 191 183 180 183 182 181 180 181 182 184 182 177 174 174 174 173 174 177 179 180 182 183 184 185 186 188 190 190 191 191 191 189 187 186 181 175 173 174 176 177 176 175 177 178 178 180 182
305 293 287 275 267 260 257 263 266 271 276 283 285 262 252 254 239 246 239 218 249 235 226 245 236 208 235 263 255 254 246 230 218 213 216 219 211 189 185 192 181 178 180 179 181 182 181 181 180 177 173 173 172 171 173 175 177 179 181 182 181 183 185 186 188 190 191 191 192 192 190 189 187 183 179 176 176 177 178 177 177 178 179 179 182 184
296 273 273 281 280 262 248 262 269 277 278 271 279 277 243 256 244 235 232 215 235 246 234 240 237 218 224 244 253 259 258 243 228 218 211 211 210 195 188 192 182 176 177 176 179 180 179 177 174 174 175 175 173 173 175 176 177 179 182 182 180 182 184 186 188 190 191 192 193 192 191 190 188 185 183 181 180 180 181 181 181 180 181 183 185 188
293 277 266 269 282 251 226 236 261 270 267 252 253 249 205 207 229 237 247 239 230 253 253 241 234 230 226 229 238 246 249 242 232 223 209 202 203 197 191 191 181 176 177 176 177 178 178 177 175 176 177 177 178 177 176 177 178 180 181 181 181 182 184 185 186 189 190 193 194 193 191 189 187 186 185 184 183 183 184 185 185 186 188 190 191 192
265 281 254 239 253 256 239 227 216 213 253 257 220 196 252 253 238 234 230 227 244 277 271 246 222 203 213 235 236 237 242 240 233 229 216 205 200 196 193 192 182 179 179 176 178 179 178 177 177 178 179 179 179 177 177 178 179 179 180 181 181 182 184 185 185 187 190 192 194 193 191 190 187 186 186 186 186 186 187 188 189 191 194 197 197 194
239 256 254 251 257 271 276 262 222 197 239 265 221 191 239 249 239 246 224 182 206 296 293 259 226 200 204 241 246 247 262 264 244 232 222 211 200 191 194 195 185 180 179 177 179 180 178 178 177 178 180 180 178 177 178 179 179 180 181 182 183 183 183 184 184 186 190 192 192 192 192 190 188 186 186 187 187 188 190 190 192 195 198 199 197 194
218 249 263 282 286 274 261 271 272 202 223 285 251 201 255 257 219 220 277 249 106 291 282 258 244 241 238 249 246 250 265 271 254 233 218 208 194 187 194 195 183 177 179 180 181 178 177 178 180 181 181 179 177 178 180 181 182 182 181 182 183 183 182 183 184 186 189 190 191 191 192 191 189 188 188 188 188 190 190 192 195 198 197 197 196 194
188 263 275 272 281 280 270 278 279 233 208 237 251 240 313 305 233 179 254 348 45 274 273 261 231 200 206 247 258 248 245 253 251 231 218 206 190 189 195 190 181 179 180 181 179 175 175 178 182 183 182 180 179 180 181 182 182 183 183 183 182 181 181 182 184 186 188 189 189 190 191 191 190 191 191 190 190 191 191 192 196 198 196 196 196 194
145 274 282 247 242 277 314 315 289 263 202 185 229 265 19 335 279 284 256 163 171 257 280 279 247 201 205 239 273 261 239 243 243 229 219 203 188 192 194 184 180 181 180 178 176 174 177 181 182 182 182 182 181 181 181 181 181 182 184 184 182 182 182 182 183 185 186 187 187 189 192 192 191 192 192 192 192 191 192 193 196 198 197 195 194 193
130 183 287 270 226 331 344 340 243 271 256 209 259 320 93 154 185 238 244 146 158 237 279 293 287 249 219 228 249 260 259 250 242 232 219 200 192 196 190 178 180 183 179 175 175 177 181 182 183 182 180 179 178 179 180 179 181 183 184 182 181 180 179 179 182 184 186 187 187 188 191 191 191 193 193 193 193 192 193 195 198 200 197 193 192 193
131 190 265 297 349 359 316 241 221 241 246 213 186 191 180 175 180 243 252 211 182 204 248 284 291 266 246 236 248 268 287 290 268 250 228 203 196 199 191 179 180 182 177 175 176 181 184 182 182 181 178 175 174 175 178 180 182 183 182 180 179 178 177 179 182 184 185 187 187 187 189 189 190 192 194 194 194 194 195 197 200 199 196 193 192 194
102 201 253 290 313 296 246 243 253 250 233 195 178 195 194 176 120 49 275 272 236 209 249 274 273 264 255 236 19 305 317 327 312 286 256 222 199 197 196 186 181 178 173 176 181 183 182 179 176 174 171 170 170 173 177 181 183 182 180 179 177 177 178 180 182 183 185 186 188 189 188 188 189 191 193 193 193 194 195 196 196 195 194 193 193 195
64 189 254 271 269 262 259 257 260 265 257 230 201 190 177 162 149 170 223 270 296 311 315 300 273 260 248 67 29 351 344 340 327 311 279 242 212 199 197 190 182 177 174 178 183 181 176 173 169 167 166 166 170 174 178 181 183 183 180 178 177 178 180 181 183 183 184 186 189 190 189 187 188 190 190 190 191 192 191 192 193 194 194 194 194 196
87 176 244 272 273 271 271 265 258 260 260 245 219 182 169 184 189 186 185 163 332 307 310 315 278 258 307 21 -0 350 351 344 336 333 310 260 226 207 196 186 179 176 176 178 179 173 168 167 164 163 164 166 171 175 177 181 183 182 179 178 179 180 181 182 183 183 184 187 190 192 190 188 187 188 188 188 188 188 188 190 192 194 195 194 193 195
164 161 217 282 313 312 300 291 252 238 231 226 224 197 184 188 183 166 125 112 205 268 257 270 275 266 313 352 345 344 348 341 332 333 333 302 239 213 189 175 172 172 174 174 169 163 162 163 164 165 166 169 172 175 177 180 181 180 179 180 181 181 181 182 183 182 183 187 190 191 190 189 188 188 187 188 188 188 188 190 193 194 195 193 193 194
171 158 175 270 335 47 339 270 220 211 217 227 227 211 195 188 182 168 112 133 210 266 258 251 268 285 310 335 338 339 341 336 330 328 335 333 278 222 182 167 170 169 171 172 165 161 164 166 168 169 170 172 173 175 177 178 178 178 179 182 182 181 181 181 182 182 183 186 188 190 190 189 189 188 187 188 187 188 189 190 192 193 193 193 193 194
138 181 204 225 218 191 203 228 238 239 234 221 221 214 195 187 188 176 139 171 217 267 276 258 266 294 312 329 333 331 331 329 328 324 328 333 313 250 181 164 167 167 169 168 163 164 166 168 171 171 172 174 173 175 178 177 176 176 177 181 182 182 181 181 181 181 183 185 186 189 190 189 189 188 187 187 187 186 188 189 191 192 193 194 194 194
133 203 214 208 220 240 241 247 258 263 248 220 215 210 195 192 196 189 181 204 221 264 277 269 269 291 303 314 315 314 320 322 320 319 320 323 316 288 187 158 159 163 165 164 163 166 167 168 171 172 173 174 173 175 177 177 176 175 176 179 180 181 181 180 179 180 182 184 186 188 189 189 189 187 186 186 185 185 186 188 189 191 193 193 194 196
141 243 223 194 235 258 258 257 260 252 231 218 217 209 203 207 209 203 210 225 226 236 259 265 271 283 289 298 301 300 307 311 308 310 312 312 308 289 201 160 158 162 165 167 168 169 170 171 171 172 173 172 173 174 175 176 176 174 176 179 180 181 181 180 178 180 182 183 186 188 188 187 186 185 185 184 183 183 185 187 188 189 190 191 195 198
113 270 264 293 293 288 291 300 315 319 302 272 247 222 208 209 210 209 220 231 235 242 252 258 265 270 268 275 291 294 298 305 303 307 313 314 306 258 199 168 162 166 168 170 173 173 173 172 171 171 171 169 172 173 173 174 175 175 177 179 180 182 182 180 179 179 181 183 185 187 186 184 182 181 182 183 183 183 184 185 185 186 187 191 195 197
142 254 275 341 340 311 272 270 309 312 292 279 285 255 213 209 210 213 221 231 243 254 258 256 260 267 265 273 290 292 306 320 317 316 314 314 312 254 201 178 167 171 173 173 174 174 173 172 171 170 169 171 174 174 173 174 175 176 178 179 181 183 182 180 180 181 181 183 184 184 182 180 179 179 181 183 183 183 183 183 184 185 188 192 195 197
157 246 287 25 345 288 219 220 258 261 244 248 280 285 222 209 211 214 216 219 228 242 254 255 261 270 275 296 304 302 317 323 318 315 308 307 326 304 212 187 174 173 175 174 173 172 172 172 172 172 173 175 175 174 174 174 174 175 178 180 182 182 181 181 181 181 181 181 182 182 179 177 177 178 181 183 183 183 182 182 183 186 191 193 195 196
169 201 294 42 328 305 295 296 297 309 72 264 256 222 205 208 217 225 229 229 223 216 218 228 237 246 255 293 314 311 317 317 311 312 305 301 326 330 269 201 184 178 175 172 172 173 174 175 175 177 177 176 176 177 176 174 174 177 179 180 180 179 179 180 181 179 178 179 180 179 177 176 176 178 181 183 184 183 183 183 185 190 194 195 195 197
149 149 220 162 224 298 318 327 336 42 77 253 236 204 214 220 218 222 237 244 232 212 212 222 218 207 203 234 275 288 303 305 300 301 299 290 305 325 317 307 173 176 180 178 175 173 175 179 179 178 177 176 177 177 175 174 176 177 177 177 177 177 178 178 178 177 176 177 177 176 176 176 176 179 182 183 184 184 184 185 189 194 196 195 195 196
141 141 198 196 206 280 332 4 18 37 236 256 288 333 324 292 246 245 254 254 255 263 256 233 197 185 193 204 260 286 283 280 280 284 286 279 261 265 287 302 21 55 162 180 180 177 175 177 176 173 175 176 174 171 172 175 176 174 174 174 174 175 176 176 175 175 175 174 174 174 175 176 177 179 181 183 184 185 186 187 189 193 194 193 194 196
153 146 150 216 263 302 9 32 10 279 276 293 322 350 356 356 358 356 331 282 307 329 290 242 197 188 183 152 139 282 272 266 270 271 273 277 272 229 226 244 234 154 172 175 177 178 175 173 175 174 171 170 169 169 172 175 174 171 171 172 172 172 173 173 174 175 174 173 173 174 175 176 177 178 180 182 183 184 186 187 189 191 192 193 194 196
136 149 192 245 243 336 353 293 276 303 315 328 358 39 10 329 325 353 328 277 314 5 353 327 273 229 198 153 175 236 253 267 286 271 257 260 259 234 204 212 203 182 184 185 179 182 181 177 176 175 170 167 168 172 174 173 172 171 170 170 171 171 171 172 174 176 175 174 174 175 176 176 177 177 179 181 183 186 188 188 188 190 192 192 192 194
101 178 196 299 319 78 27 306 322 352 325 286 275 83 341 274 272 260 246 267 319 1 4 1 339 318 319 213 210 231 237 223 266 266 253 239 235 222 207 217 208 183 177 181 181 190 190 180 174 173 171 169 170 173 173 171 171 171 171 171 171 170 171 173 175 176 176 175 175 176 176 176 176 178 180 182 184 187 190 190 190 191 192 192 191 192
4 16 100 46 22 62 43 323 306 283 242 252 285 30 300 283 292 284 222 258 322 349 350 343 313 307 316 290 273 257 213 223 243 255 252 235 221 206 200 210 211 196 188 185 182 186 186 179 174 173 171 170 172 173 172 171 171 172 172 172 172 171 173 176 177 177 176 176 176 177 177 177 179 181 182 183 186 190 192 191 190 191 193 193 192 193
358 357 22 25 5 309 255 248 243 244 247 277 328 342 311 292 301 114 199 250 324 338 334 329 315 310 309 298 296 265 202 228 243 253 255 245 210 191 196 202 204 199 192 187 187 187 182 175 170 169 171 174 175 174 172 170 171 172 173 172 173 175 178 178 177 177 176 176 177 177 177 179 183 184 183 184 188 191 191 190 189 190 191 191 192 193
342 344 354 356 335 295 268 262 265 263 258 331 344 330 316 308 323 152 216 265 319 322 313 315 314 306 308 317 301 262 238 244 255 275 282 282 240 179 184 194 202 200 191 188 190 186 178 172 171 173 177 179 175 172 170 170 171 173 173 173 175 179 180 177 174 174 175 176 177 177 178 181 184 184 183 185 187 188 189 190 190 189 189 189 191 193
332 327 324 330 333 315 266 270 290 267 251 3 348 328 321 347 25 251 273 297 310 306 301 307 303 292 302 320 295 279 283 280 285 319 333 327 326 310 176 180 194 200 195 193 192 185 175 173 177 178 178 176 173 171 171 171 171 172 172 174 179 180 177 173 171 173 175 176 178 179 180 181 183 183 183 185 185 185 187 189 189 189 189 189 191 194
279 316 322 316 308 305 280 308 329 291 292 343 346 339 1 53 247 267 298 310 307 300 298 300 296 294 316 326 315 316 313 306 321 22 41 42 38 22 12 29 190 218 203 191 188 183 176 174 178 179 177 174 172 171 171 170 169 170 172 176 178 175 171 170 171 173 175 177 179 181 180 180 182 183 184 184 184 185 186 187 188 188 188 188 190 192
233 205 318 298 308 335 331 320 292 257 275 317 331 314 299 302 267 270 304 305 299 297 295 297 301 304 319 323 321 334 330 314 325 37 60 55 54 50 39 36 29 5 301 213 192 182 176 175 177 175 173 171 170 171 172 170 167 168 171 173 171 168 167 169 170 173 175 175 176 178 178 179 181 183 182 182 184 184 185 186 187 188 188 189 189 189
248 165 188 261 258 262 266 258 257 268 284 297 293 277 284 288 274 271 291 292 292 294 292 300 306 308 319 324 325 347 341 307 310 11 82 99 94 84 70 61 61 46 19 342 245 190 176 173 173 169 168 170 170 170 171 169 165 164 166 166 165 165 165 166 169 171 172 173 176 178 177 177 179 179 181 183 185 184 184 185 185 184 186 187 186 185
275 165 126 234 262 255 259 257 262 279 286 284 284 284 287 292 292 293 298 296 297 299 297 301 303 303 313 322 329 357 329 290 300 339 35 75 89 89 80 68 65 65 54 23 342 283 191 171 165 163 163 167 170 170 170 170 166 161 158 159 161 163 164 164 165 166 166 171 176 176 173 172 174 176 181 185 187 186 186 185 184 183 184 184 184 185
298 290 136 244 285 315 307 286 280 284 283 288 298 296 288 294 298 297 295 291 299 308 305 306 310 310 313 318 325 321 281 272 278 332 14 26 37 47 61 72 65 57 74 68 21 347 313 171 165 164 163 165 169 167 164 163 160 155 154 157 160 162 163 163 161 161 163 169 172 171 170 173 175 177 181 185 186 186 186 186 185 183 182 182 182 183
312 304 260 271 278 281 283 284 287 287 279 282 294 295 292 296 300 305 306 302 311 317 309 304 311 315 318 326 324 288 265 261 243 142 68 53 60 62 59 70 78 67 68 76 63 33 10 10 83 138 134 133 143 146 147 153 158 155 154 156 159 162 162 162 162 163 166 168 169 170 174 178 178 178 181 183 185 186 186 186 187 186 187 189 190 190
292 287 283 305 300 281 278 289 306 322 309 294 293 302 296 294 302 313 317 319 327 333 328 316 312 314 325 333 322 289 266 252 223 131 96 74 67 84 85 79 79 80 73 72 75 77 60 36 55 84 87 98 129 144 155 164 164 158 154 155 158 159 158 158 159 160 162 165 167 170 174 178 179 179 180 181 184 187 189 192 194 194 195 198 201 202
298 293 304 336 314 298 299 306 318 330 309 293 284 289 294 301 314 320 320 324 331 336 334 323 319 324 331 325 303 279 265 252 238 92 93 84 70 85 101 99 90 86 85 78 73 77 91 111 118 115 111 132 138 144 155 161 159 156 154 155 157 156 153 151 152 154 158 163 167 171 173 174 176 178 179 180 182 184 187 193 197 199 200 202 205 208
284 285 296 306 293 286 293 301 301 277 270 279 276 252 262 292 310 310 312 318 322 329 336 328 317 314 306 287 273 270 271 279 350 74 79 75 73 77 77 77 82 93 102 99 87 79 94 124 139 133 132 140 137 139 147 151 151 151 151 152 155 155 153 150 150 152 159 165 169 172 174 174 175 178 179 180 182 182 182 185 192 200 205 209 210 211